Location: Chuathbaluk
(61.5726°N, 159.2454°W)
Time: 23:18:13
(UTC+00:00)

A-11 Canister half - Visible Passes

Search period start: 25 November 2020 00:00
Search period end: 05 December 2020 00:00
Orbit: 1516 x 1684 km, 47.2° (Epoch: 25 November)

Date Brightness Start Highest point End Pass type
(mag) Time Alt. Az. Time Alt. Az. Time Alt. Az.
25 Nov 10.5 02:21:25 10° WSW 02:30:13 36° S 02:39:04 10° ESE visible
25 Nov 10.7 04:25:09 10° W 04:33:13 28° SSW 04:41:15 10° SSE visible
25 Nov 11.2 06:31:13 10° WSW 06:35:21 13° SW 06:39:28 10° SSW visible
26 Nov 10.7 04:02:16 10° WSW 04:10:24 29° SSW 04:18:31 10° SSE visible
26 Nov 11.2 06:08:00 10° WSW 06:12:35 14° SW 06:17:10 10° SSW visible
27 Nov 10.7 03:39:21 10° WSW 03:47:33 29° SSW 03:55:46 10° SSE visible
27 Nov 11.2 05:44:51 10° WSW 05:49:49 15° SW 05:54:47 10° SSW visible
28 Nov 10.8 03:16:27 10° WSW 03:24:43 30° SSW 03:33:01 10° SSE visible
28 Nov 11.2 05:21:44 10° WSW 05:27:03 16° SW 05:32:22 10° SSW visible
29 Nov 10.8 02:53:34 10° WSW 03:01:53 31° SSW 03:10:16 10° SE visible
29 Nov 11.3 04:58:39 10° W 05:04:17 17° SW 05:09:55 10° S visible
30 Nov 10.9 02:30:41 10° WSW 02:39:03 31° SSW 02:47:30 10° SE visible
30 Nov 11.3 04:35:36 10° W 04:41:30 17° SW 04:47:25 10° S visible
01 Dec 10.9 02:07:48 10° WSW 02:16:13 32° SSW 02:24:43 10° SE visible
01 Dec 11.3 04:12:35 10° W 04:18:43 18° SW 04:24:53 10° S visible
02 Dec 11.4 03:49:34 10° W 03:55:56 19° SW 04:02:20 10° S visible
03 Dec 11.4 03:26:35 10° W 03:33:09 20° SW 03:39:45 10° S visible
04 Dec 11.4 03:03:36 10° W 03:10:21 21° SW 03:17:09 10° S visible
